Change the Weather History Date:

Monday, December 3, 2012

  Actual Average Record
Temperature  
Mean Temperature 41 °F -  
Max Temperature 50 °F 42 °F 60 °F (1998)
Min Temperature 32 °F 19 °F 0 °F (2004)
Degree Days  
Heating Degree Days 24    
Moisture  
Dew Point 35 °F    
Average Humidity 80    
Maximum Humidity 92    
Minimum Humidity 45    
Precipitation  
Precipitation 0.12 in - - ()
Sea Level Pressure  
Sea Level Pressure 30.15 in    
Wind  
Wind Speed 9 mph (NNW)    
Max Wind Speed 22 mph    
Max Gust Speed 33 mph    
Visibility 10 miles    
Events Rain    
Averages and records for this station are not official NWS values.
T = Trace of Precipitation, MM = Missing Value Source: NWS Daily Summary

Daily Weather History Graph

Daily Weather History Graph

Search for Another Location

Airport or City:

Trip Planner

Search our weather history database for the weather conditions in past years. The results will help you decide how hot, cold, wet, or windy it might be!

Date:

Astronomy

Dec. 03, 2012 Rise Set
Actual Time 7:32 AM MST 5:11 PM MST
Civil Twilight 7:03 AM MST 5:40 PM MST
Nautical Twilight 6:30 AM MST 6:13 PM MST
Astronomical Twilight 5:58 AM MST 6:45 PM MST
Moon 9:59 PM MST (12/3) 10:59 AM MST (12/3)
Length of Visible Light 10h 37m
Length of Day
9h 38m
Waning Gibbous, 77% of the Moon is Illuminated
Dec 3
Waning Gibbous
Dec 6
Last Quarter
Dec 13
New
Dec 19
First Quarter
Dec 28
Full

Hourly Weather History & Observations

Time (MST) Temp. Windchill Dew Point Humidity Pressure Visibility Wind Dir Wind Speed Gust Speed Precip Events Conditions
12:52 AM 46.0 °F 41.4 °F 39.9 °F 79% 29.96 in 10.0 mi North 9.2 mph 20.7 mph N/A   Overcast
1:01 AM 44.6 °F 36.1 °F 39.2 °F 81% 30.05 in 10.0 mi North 21.9 mph 33.4 mph 0.00 in Rain Rain
1:08 AM 42.8 °F 35.4 °F 39.2 °F 87% 30.05 in 6.0 mi North 15.0 mph - 0.01 in Rain Rain
1:28 AM 42.8 °F 35.1 °F 39.2 °F 87% 30.06 in 5.0 mi North 16.1 mph - 0.09 in Rain Light Rain
1:52 AM 41.0 °F 32.2 °F 37.0 °F 86% 30.02 in 10.0 mi NNE 18.4 mph - 0.10 in Rain Light Rain
2:09 AM 39.2 °F 30.5 °F 35.6 °F 87% 30.10 in 10.0 mi NE 16.1 mph - 0.00 in Rain Light Rain
2:43 AM 39.2 °F 33.0 °F 35.6 °F 87% 30.13 in 10.0 mi NNE 9.2 mph - 0.01 in Rain Light Rain
2:52 AM 39.9 °F 35.1 °F 36.0 °F 86% 30.08 in 10.0 mi NNE 6.9 mph - 0.02 in Rain Light Rain
3:52 AM 37.0 °F 34.5 °F 34.0 °F 89% 30.07 in 10.0 mi NNW 3.5 mph - 0.00 in   Partly Cloudy
4:52 AM 37.0 °F 31.0 °F 33.1 °F 86% 30.07 in 10.0 mi WNW 8.1 mph - N/A   Clear
5:52 AM 33.1 °F 26.1 °F 30.9 °F 92% 30.10 in 10.0 mi ESE 8.1 mph - N/A   Clear
6:52 AM 33.1 °F 26.9 °F 30.0 °F 89% 30.12 in 10.0 mi West 6.9 mph - N/A   Clear
7:52 AM 33.1 °F 28.7 °F 30.9 °F 92% 30.16 in 10.0 mi East 4.6 mph - N/A   Clear
8:52 AM 34.0 °F 31.0 °F 32.0 °F 92% 30.16 in 10.0 mi SW 3.5 mph - N/A   Clear
9:52 AM 41.0 °F 38.0 °F 37.0 °F 86% 30.14 in 10.0 mi West 4.6 mph - N/A   Clear
10:52 AM 44.1 °F - 37.0 °F 76% 30.15 in 10.0 mi Calm Calm - N/A   Clear
11:52 AM 46.0 °F 44.8 °F 36.0 °F 68% 30.16 in 10.0 mi Variable 3.5 mph - N/A   Partly Cloudy
12:52 PM 48.0 °F - 36.0 °F 63% 30.15 in 10.0 mi Calm Calm - N/A   Clear
1:52 PM 50.0 °F - 35.1 °F 57% 30.14 in 10.0 mi SSE 3.5 mph - N/A   Partly Cloudy
2:52 PM 52.0 °F - 35.1 °F 53% 30.13 in 10.0 mi SW 6.9 mph - N/A   Clear
3:52 PM 50.0 °F - 35.1 °F 57% 30.15 in 10.0 mi SSW 4.6 mph - N/A   Clear
4:52 PM 48.0 °F - 37.0 °F 66% 30.16 in 10.0 mi Calm Calm - N/A   Clear
5:52 PM 42.1 °F 36.6 °F 36.0 °F 79% 30.21 in 10.0 mi NNW 9.2 mph - N/A   Clear
6:52 PM 39.9 °F 34.5 °F 35.1 °F 83% 30.25 in 10.0 mi NNW 8.1 mph - N/A   Clear
7:52 PM 35.1 °F 29.3 °F 33.1 °F 92% 30.28 in 10.0 mi NNE 6.9 mph - N/A   Clear
8:52 PM 36.0 °F - 32.0 °F 86% 30.29 in 10.0 mi Calm Calm - N/A   Clear
9:52 PM 36.0 °F - 33.1 °F 89% 30.27 in 10.0 mi Calm Calm - N/A   Clear
10:52 PM 32.0 °F 28.7 °F 28.9 °F 88% 30.28 in 10.0 mi South 3.5 mph - N/A   Clear
11:52 PM 32.0 °F 27.5 °F 30.0 °F 92% 30.27 in 10.0 mi WSW 4.6 mph - N/A   Clear